{"data":{"norad_id":63497,"epoch":"2026-05-25T03:29:31.528320Z","epoch_age_seconds":65655,"freshness":"FRESH","line1":"1 63497U 25071E   26145.14550380  .00015516  00000+0  51066-3 0  9996","line2":"2 63497  53.1587 144.9391 0001022  47.8418 312.2670 15.31702764 64476","mean_motion":15.31702764,"eccentricity":0.0001022,"inclination_deg":53.1587,"raan_deg":144.9391,"arg_perigee_deg":47.8418,"mean_anomaly_deg":312.267,"bstar":0.00051066,"rev_number":6447,"period_min":94.013018311691,"perigee_km":470.03180151101,"apogee_km":471.43171028472,"semimajor_km":6848.8687558979,"source":"CELESTRAK","updated_at":"2026-05-25T13:38:20.012343Z"}}